Palembang, Indonesia

6:59 AM WIB on November 21, 2017 (GMT +0700)
Sultan M Badaruddin Ii

Weather History for WIPP - November, 2013

Change the Weather History Date:

Friday, November 29, 2013

  Actual Average Record
Temperature  
Mean Temperature 82 °F -  
Max Temperature 89 °F - - ()
Min Temperature 74 °F - - ()
Cooling Degree Days 16    
Growing Degree Days 32 (Base 50)    
Moisture  
Dew Point 75 °F    
Average Humidity 84    
Maximum Humidity 100    
Minimum Humidity 58    
Precipitation  
Precipitation 0.01 in - - ()
Sea Level Pressure  
Sea Level Pressure 29.81 in    
Wind  
Wind Speed 3 mph ()    
Max Wind Speed 17 mph    
Max Gust Speed -    
Visibility 4.9 miles    
Events Rain , Thunderstorm    
T = Trace of Precipitation, MM = Missing Value Source: Averaged Metar Reports

Daily Weather History Graph

Daily Weather History Graph

Search for Another Location

Airport or City:

Trip Planner

Search our weather history database for the weather conditions in past years. The results will help you decide how hot, cold, wet, or windy it might be!

Date:

Astronomy

Nov. 29, 2013 Rise Set
Actual Time 5:41 AM WIB 5:57 PM WIB
Civil Twilight 5:18 AM WIB 6:20 PM WIB
Nautical Twilight 4:52 AM WIB 6:46 PM WIB
Astronomical Twilight 4:26 AM WIB 7:12 PM WIB
Moon 2:08 AM WIB (11/29) 2:34 PM WIB (11/29)
Length of Visible Light 13h 01m
Length of Day
12h 16m
Waning Crescent, 18% of the Moon is Illuminated
Nov 29
Waning Crescent
Dec 3
New
Dec 9
First Quarter
Dec 17
Full
Dec 25
Last Quarter

Hourly Weather History & Observations

Time (WIB) Temp. Heat Index Dew Point Humidity Pressure Visibility Wind Dir Wind Speed Gust Speed Precip Events Conditions
1:00 AM 75 °F - 74 °F 95% 29.85 in 2 mi WNW 4.6 mph - - Rain Light Rain
4:00 AM 75 °F - 74 °F 95% 29.81 in 2 mi Calm Calm - -   Mist
5:30 AM 75.2 °F - 73.4 °F 94% 29.83 in 3.7 mi Calm Calm - N/A   Partly Cloudy
6:00 AM 75.2 °F - 73.4 °F 94% 29.83 in 3.1 mi WNW 4.6 mph - N/A   Haze
6:30 AM 75.2 °F - 73.4 °F 94% 29.83 in 0.9 mi Calm Calm - N/A   Mostly Cloudy
7:00 AM 76 °F - 74 °F 94% 29.86 in 1 mi Calm Calm - -   Mist
7:00 AM 75.2 °F - 75.2 °F 100% 29.86 in 0.9 mi Calm Calm - N/A   Mostly Cloudy
7:30 AM 77.0 °F - 75.2 °F 94% 29.86 in 2.5 mi Calm Calm - N/A   Haze
8:00 AM 80.6 °F 87.1 °F 77.0 °F 89% 29.86 in 3.7 mi Calm Calm - N/A   Scattered Clouds
8:30 AM 80.6 °F 87.1 °F 77.0 °F 89% 29.89 in 6.2 mi West 4.6 mph - N/A   Scattered Clouds
9:00 AM 82.4 °F 90.9 °F 77.0 °F 84% 29.89 in 6.2 mi West 5.8 mph - N/A   Partly Cloudy
10:00 AM 84 °F - 76 °F 71% 29.89 in 6 mi West 8.1 mph - -   Partly Cloudy
10:00 AM 84.2 °F 92.3 °F 75.2 °F 74% 29.89 in 6.2 mi West 8.1 mph - N/A   Scattered Clouds
10:30 AM 84.2 °F 92.3 °F 75.2 °F 74% 29.86 in 6.2 mi NNW 5.8 mph - N/A   Scattered Clouds
11:00 AM 84.2 °F 94.1 °F 77.0 °F 79% 29.86 in 6.2 mi NNW 4.6 mph - N/A   Scattered Clouds
11:30 AM 86.0 °F 95.1 °F 75.2 °F 70% 29.83 in 6.2 mi NW 5.8 mph - N/A   Scattered Clouds
12:30 PM 86.0 °F 95.1 °F 75.2 °F 70% 29.80 in 6.2 mi West 5.8 mph - N/A   Scattered Clouds
1:00 PM 87 °F - 74 °F 58% 29.78 in 6 mi West 5.8 mph - -   Partly Cloudy
1:00 PM 87.8 °F 97.6 °F 75.2 °F 66% 29.77 in 6.2 mi West 5.8 mph - N/A   Scattered Clouds
1:30 PM 87.8 °F 97.6 °F 75.2 °F 66% 29.77 in 6.2 mi West 5.8 mph - N/A   Scattered Clouds
2:00 PM 87.8 °F 95.6 °F 73.4 °F 62% 29.74 in 6.2 mi NNW 5.8 mph - N/A   Scattered Clouds
2:30 PM 87.8 °F 95.6 °F 73.4 °F 62% 29.74 in 6.2 mi WNW 5.8 mph - N/A   Scattered Clouds
3:00 PM 84.2 °F 92.3 °F 75.2 °F 74% 29.74 in 6.2 mi NNE 17.3 mph - N/A   Mostly Cloudy
3:30 PM 80.6 °F 86.2 °F 75.2 °F 84% 29.74 in 6.2 mi NNE 11.5 mph - N/A   Mostly Cloudy
4:00 PM 81 °F - 76 °F 80% 29.74 in 6 mi NE 5.8 mph - -   Overcast
4:00 PM 80.6 °F 86.2 °F 75.2 °F 84% 29.74 in 6.2 mi NE 5.8 mph - N/A   Partly Cloudy
4:30 PM 78.8 °F - 75.2 °F 89% 29.74 in 6.2 mi NE 5.8 mph - N/A Thunderstorm Thunderstorm
5:00 PM 78.8 °F - 75.2 °F 89% 29.74 in 6.2 mi NE 5.8 mph - N/A Rain Light Rain
5:30 PM 78.8 °F - 75.2 °F 89% 29.77 in 6.2 mi Calm Calm - N/A   Partly Cloudy
6:00 PM 78.8 °F - 75.2 °F 89% 29.77 in 6.2 mi Calm Calm - N/A   Partly Cloudy
6:30 PM 78.8 °F - 75.2 °F 89% 29.77 in 6.2 mi Calm Calm - N/A   Partly Cloudy
7:00 PM 78 °F - 75 °F 88% 29.78 in 4 mi Calm Calm - - Thunderstorm Thunderstorm
7:00 PM 78.8 °F - 75.2 °F 89% 29.77 in 4.3 mi Calm Calm - N/A Thunderstorm Thunderstorm
7:30 PM 78.8 °F - 75.2 °F 89% 29.80 in 4.3 mi SSE 3.5 mph - N/A   Partly Cloudy
8:00 PM 78.8 °F - 75.2 °F 89% 29.83 in 5.0 mi SSE 5.8 mph - N/A   Partly Cloudy
8:30 PM 78.8 °F - 75.2 °F 89% 29.83 in 5.0 mi SSE 3.5 mph - N/A Thunderstorm Thunderstorm
9:00 PM 78.8 °F - 75.2 °F 89% 29.86 in 3.1 mi SW 9.2 mph - N/A   Haze
9:30 PM 78.8 °F - 75.2 °F 89% 29.86 in 3.7 mi SSW 5.8 mph - N/A   Partly Cloudy
10:00 PM 77 °F - 74 °F 87% 29.86 in 6 mi Calm Calm - -   Partly Cloudy
10:00 PM 77.0 °F - 73.4 °F 89% 29.86 in 6.2 mi Calm Calm - N/A   Partly Cloudy
11:00 PM 77.0 °F - 73.4 °F 89% 29.83 in 3.1 mi SW 6.9 mph - N/A   Haze